Pinedale, WY

5:31 PM MDT on April 30, 2017 (GMT -0600)
Wenz

Weather History for KPNA - October, 2011

Change the Weather History Date:

Wednesday, October 19, 2011

  Actual Average (KBPI) Record (KBPI)
Temperature  
Mean Temperature 38 °F -  
Max Temperature 57 °F 51 °F 71 °F (2003)
Min Temperature 18 °F 20 °F 1 °F (1976)
Degree Days  
Heating Degree Days 28    
Moisture  
Dew Point 20 °F    
Average Humidity 63    
Maximum Humidity 99    
Minimum Humidity 18    
Precipitation  
Precipitation 0.00 in - - ()
Sea Level Pressure  
Sea Level Pressure 30.18 in    
Wind  
Wind Speed 4 mph (WNW)    
Max Wind Speed 9 mph    
Max Gust Speed -    
Visibility 10 miles    
Events      
Averages and records for this station are not official NWS values.
T = Trace of Precipitation, MM = Missing Value Source: NWS Daily Summary

Daily Weather History Graph

Daily Weather History Graph

Search for Another Location

Airport or City:

Trip Planner

Search our weather history database for the weather conditions in past years. The results will help you decide how hot, cold, wet, or windy it might be!

Date:

Astronomy

Oct. 19, 2011 Rise Set
Actual Time 7:37 AM MDT 6:30 PM MDT
Civil Twilight 7:08 AM MDT 6:59 PM MDT
Nautical Twilight 6:35 AM MDT 7:32 PM MDT
Astronomical Twilight 6:02 AM MDT 8:04 PM MDT
Moon No Moon Rise 2:13 PM MDT (10/19)
Length of Visible Light 11h 50m
Length of Day
10h 53m
Waning Gibbous, 54% of the Moon is Illuminated
Oct 19
Waning Gibbous
Oct 19
Last Quarter
Oct 26
New
Nov 2
First Quarter
Nov 10
Full

Hourly Weather History & Observations

Time (MDT) Temp. Windchill Dew Point Humidity Pressure Visibility Wind Dir Wind Speed Gust Speed Precip Events Conditions
12:15 AM 25.3 °F 19.7 °F 23.5 °F 93% 30.35 in 10.0 mi West 4.6 mph - N/A   Clear
12:35 AM 23.9 °F 16.8 °F 22.8 °F 96% 30.34 in 10.0 mi WNW 5.8 mph - N/A   Clear
12:55 AM 24.6 °F 20.3 °F 22.5 °F 91% 30.34 in 10.0 mi WNW 3.5 mph - N/A   Clear
1:15 AM 23.0 °F 14.7 °F 21.6 °F 94% 30.33 in 10.0 mi NW 6.9 mph - N/A   Clear
1:35 AM 23.0 °F 15.8 °F 21.9 °F 96% 30.32 in 10.0 mi West 5.8 mph - N/A   Clear
1:55 AM 23.4 °F 15.2 °F 22.1 °F 95% 30.31 in 10.0 mi West 6.9 mph - N/A   Clear
2:15 AM 22.3 °F 13.9 °F 21.4 °F 96% 30.31 in 10.0 mi WNW 6.9 mph - N/A   Scattered Clouds
2:35 AM 22.6 °F 16.5 °F 21.2 °F 94% 30.30 in 10.0 mi NW 4.6 mph - N/A   Scattered Clouds
2:55 AM 22.3 °F 14.9 °F 20.8 °F 94% 30.29 in 10.0 mi WNW 5.8 mph - N/A   Scattered Clouds
3:15 AM 21.2 °F 13.6 °F 20.3 °F 96% 30.29 in 10.0 mi WNW 5.8 mph - N/A   Clear
3:35 AM 21.2 °F 13.6 °F 20.3 °F 96% 30.27 in 10.0 mi WNW 5.8 mph - N/A   Clear
3:55 AM 21.9 °F 15.7 °F 20.8 °F 96% 30.27 in 10.0 mi West 4.6 mph - N/A   Clear
4:15 AM 21.2 °F 12.6 °F 20.3 °F 96% 30.27 in 10.0 mi WNW 6.9 mph - N/A   Clear
4:35 AM 20.8 °F 13.2 °F 19.9 °F 96% 30.26 in 10.0 mi West 5.8 mph - N/A   Scattered Clouds
4:55 AM 21.4 °F 12.8 °F 20.3 °F 96% 30.26 in 10.0 mi WNW 6.9 mph - N/A   Clear
5:15 AM 21.4 °F - 20.1 °F 95% 30.27 in 10.0 mi Calm Calm - N/A   Clear
5:35 AM 20.3 °F - 19.4 °F 96% 30.27 in 10.0 mi Calm Calm - N/A   Clear
5:55 AM 20.3 °F 15.4 °F 19.0 °F 95% 30.26 in 10.0 mi WSW 3.5 mph - N/A   Clear
6:15 AM 20.7 °F 14.2 °F 19.6 °F 96% 30.25 in 10.0 mi West 4.6 mph - N/A   Clear
6:35 AM 20.1 °F 15.2 °F 19.0 °F 96% 30.25 in 10.0 mi West 3.5 mph - N/A   Clear
6:55 AM 20.1 °F 15.2 °F 19.0 °F 96% 30.24 in 10.0 mi WNW 3.5 mph - N/A   Clear
7:15 AM 19.4 °F 14.3 °F 18.1 °F 95% 30.24 in 10.0 mi NW 3.5 mph - N/A   Clear
7:35 AM 19.0 °F 11.1 °F 17.4 °F 93% 30.23 in 10.0 mi WNW 5.8 mph - N/A   Clear
7:55 AM 18.7 °F 11.9 °F 18.5 °F 99% 30.23 in 10.0 mi West 4.6 mph - N/A   Clear
8:15 AM 21.0 °F 14.6 °F 20.3 °F 97% 30.24 in 10.0 mi West 4.6 mph - N/A   Clear
8:35 AM 23.0 °F 17.0 °F 21.0 °F 92% 30.24 in 10.0 mi West 4.6 mph - N/A   Clear
9:15 AM 28.6 °F 23.5 °F 23.7 °F 82% 30.23 in 10.0 mi WNW 4.6 mph - N/A   Clear
9:35 AM 31.8 °F 28.5 °F 25.2 °F 76% 30.22 in 10.0 mi NW 3.5 mph - N/A   Clear
9:55 AM 34.5 °F 31.6 °F 24.8 °F 68% 30.22 in 10.0 mi WNW 3.5 mph - N/A   Clear
10:15 AM 36.9 °F - 23.5 °F 59% 30.21 in 10.0 mi Calm Calm - N/A   Clear
10:35 AM 39.7 °F - 22.6 °F 50% 30.21 in 10.0 mi Calm Calm - N/A   Clear
10:55 AM 42.3 °F - 21.2 °F 43% 30.19 in 10.0 mi Calm Calm - N/A   Clear
11:15 AM 43.7 °F - 20.3 °F 39% 30.19 in 10.0 mi Calm Calm - N/A   Clear
11:55 AM 47.8 °F - 20.1 °F 33% 30.16 in 10.0 mi Calm Calm - N/A   Clear
12:15 PM 49.3 °F - 20.7 °F 32% 30.15 in 10.0 mi SSE 4.6 mph - N/A   Clear
12:35 PM 50.5 °F - 20.5 °F 31% 30.14 in 10.0 mi SE 4.6 mph - N/A   Clear
12:55 PM 51.6 °F - 19.6 °F 28% 30.14 in 10.0 mi SSW 4.6 mph - N/A   Clear
1:15 PM 51.8 °F - 17.4 °F 26% 30.13 in 10.0 mi South 3.5 mph - N/A   Clear
1:55 PM 54.5 °F - 17.2 °F 23% 30.11 in 10.0 mi SE 5.8 mph - N/A   Clear
2:15 PM 55.2 °F - 14.2 °F 20% 30.09 in 10.0 mi Calm Calm - N/A   Clear
2:35 PM 55.6 °F - 15.3 °F 20% 30.08 in 10.0 mi East 3.5 mph - N/A   Clear
2:55 PM 55.4 °F - 16.7 °F 22% 30.08 in 10.0 mi Calm Calm - N/A   Clear
3:15 PM 56.3 °F - 13.6 °F 19% 30.07 in 10.0 mi East 3.5 mph - N/A   Clear
3:35 PM 55.4 °F - 11.7 °F 18% 30.07 in 10.0 mi Calm Calm - N/A   Clear
3:55 PM 57.0 °F - 13.5 °F 18% 30.06 in 10.0 mi Calm Calm - N/A   Clear
4:15 PM 56.7 °F - 13.3 °F 18% 30.07 in 10.0 mi Calm Calm - N/A   Clear
4:35 PM 56.5 °F - 13.3 °F 18% 30.06 in 10.0 mi North 4.6 mph - N/A   Clear
4:55 PM 55.4 °F - 13.6 °F 19% 30.06 in 10.0 mi Calm Calm - N/A   Clear
5:15 PM 54.9 °F - 14.2 °F 20% 30.05 in 10.0 mi Calm Calm - N/A   Clear
5:35 PM 55.2 °F - 14.9 °F 20% 30.05 in 10.0 mi Calm Calm - N/A   Clear
5:55 PM 54.9 °F - 15.1 °F 21% 30.05 in 10.0 mi Calm Calm - N/A   Clear
6:15 PM 52.0 °F - 18.0 °F 26% 30.05 in 10.0 mi Calm Calm - N/A   Clear
6:35 PM 48.0 °F - 19.2 °F 32% 30.05 in 10.0 mi Calm Calm - N/A   Clear
6:55 PM 45.1 °F - 20.7 °F 38% 30.05 in 10.0 mi Calm Calm - N/A   Clear
7:35 PM 40.6 °F 37.5 °F 23.2 °F 50% 30.05 in 10.0 mi WNW 4.6 mph - N/A   Clear
8:15 PM 37.8 °F 33.3 °F 25.3 °F 61% 30.06 in 10.0 mi West 5.8 mph - N/A   Clear
8:35 PM 37.4 °F 34.9 °F 26.4 °F 65% 30.07 in 10.0 mi NNW 3.5 mph - N/A   Clear
8:55 PM 37.0 °F 30.4 °F 26.2 °F 65% 30.08 in 10.0 mi West 9.2 mph - N/A   Clear
9:15 PM 35.8 °F 31.9 °F 26.6 °F 69% 30.08 in 10.0 mi West 4.6 mph - N/A   Clear
9:35 PM 36.5 °F 31.8 °F 26.2 °F 66% 30.08 in 10.0 mi West 5.8 mph - N/A   Scattered Clouds
9:55 PM 35.6 °F 29.9 °F 26.4 °F 69% 30.09 in 10.0 mi WNW 6.9 mph - N/A   Clear
10:15 PM 36.0 °F 29.6 °F 26.4 °F 68% 30.09 in 10.0 mi NW 8.1 mph - N/A   Clear
10:35 PM 36.0 °F 30.3 °F 26.6 °F 69% 30.09 in 10.0 mi WNW 6.9 mph - N/A   Scattered Clouds
10:55 PM 34.9 °F 29.0 °F 26.1 °F 70% 30.09 in 10.0 mi NW 6.9 mph - N/A   Scattered Clouds
11:15 PM 32.4 °F 25.3 °F 25.3 °F 75% 30.09 in 10.0 mi West 8.1 mph - N/A   Scattered Clouds
11:35 PM 33.8 °F 27.0 °F 24.8 °F 70% 30.09 in 10.0 mi West 8.1 mph - N/A   Scattered Clouds
11:55 PM 32.5 °F 27.1 °F 24.6 °F 73% 30.09 in 10.0 mi NW 5.8 mph - N/A   Mostly Cloudy